Year,Month,Day,Hour,Minute,Value (Times are PST for temperature in C)
2003,07,30,00,00,21.70
2003,07,30,00,01,21.80
2003,07,30,00,02,21.80
2003,07,30,00,03,21.80
2003,07,30,00,04,21.80
2003,07,30,00,05,21.70
2003,07,30,00,06,21.60
2003,07,30,00,07,21.50
2003,07,30,00,08,21.40
2003,07,30,00,09,21.30
2003,07,30,00,10,21.20
2003,07,30,00,11,21.10
2003,07,30,00,12,21.00
2003,07,30,00,13,20.90
2003,07,30,00,14,20.80
2003,07,30,00,15,20.70
2003,07,30,00,16,20.60
2003,07,30,00,17,20.50
2003,07,30,00,18,20.50
2003,07,30,00,19,20.30
2003,07,30,00,20,20.20
2003,07,30,00,21,20.00
2003,07,30,00,22,19.90
2003,07,30,00,23,19.70
2003,07,30,00,24,19.60
2003,07,30,00,25,19.40
2003,07,30,00,26,19.30
2003,07,30,00,27,19.30
2003,07,30,00,28,19.10
2003,07,30,00,29,19.00
2003,07,30,00,30,18.90
2003,07,30,00,31,18.70
2003,07,30,00,32,18.70
2003,07,30,00,33,18.60
2003,07,30,00,34,18.50
2003,07,30,00,35,18.40
2003,07,30,00,36,18.30
2003,07,30,00,37,18.30
2003,07,30,00,38,18.20
2003,07,30,00,39,18.20
2003,07,30,00,40,18.20
2003,07,30,00,41,18.20
2003,07,30,00,42,18.20
2003,07,30,00,43,18.10
2003,07,30,00,44,18.20
2003,07,30,00,45,18.20
2003,07,30,00,46,18.10
2003,07,30,00,47,18.10
2003,07,30,00,48,18.00
2003,07,30,00,49,17.90
2003,07,30,00,50,17.80
2003,07,30,00,51,17.70
2003,07,30,00,52,17.70
2003,07,30,00,53,17.60
2003,07,30,00,54,17.60
2003,07,30,00,55,17.50
2003,07,30,00,56,17.50
2003,07,30,00,57,17.40
2003,07,30,00,58,17.30
2003,07,30,00,59,17.30
2003,07,30,01,00,17.30
2003,07,30,01,01,17.30
2003,07,30,01,02,17.20
2003,07,30,01,03,17.20
2003,07,30,01,04,17.20
2003,07,30,01,05,17.20
2003,07,30,01,06,17.20
2003,07,30,01,07,17.20
2003,07,30,01,08,17.20
2003,07,30,01,09,17.20
2003,07,30,01,10,17.30
2003,07,30,01,11,17.30
2003,07,30,01,12,17.40
2003,07,30,01,13,17.50
2003,07,30,01,14,17.50
2003,07,30,01,15,17.50
2003,07,30,01,16,17.50
2003,07,30,01,17,17.60
2003,07,30,01,18,17.70
2003,07,30,01,19,17.80
2003,07,30,01,20,17.90
2003,07,30,01,21,17.90
2003,07,30,01,22,17.90
2003,07,30,01,23,17.90
2003,07,30,01,24,17.90
2003,07,30,01,25,17.90
2003,07,30,01,26,17.90
2003,07,30,01,27,17.90
2003,07,30,01,28,17.90
2003,07,30,01,29,17.90
2003,07,30,01,30,17.90
2003,07,30,01,31,17.90
2003,07,30,01,32,17.90
2003,07,30,01,33,17.80
2003,07,30,01,34,17.80
2003,07,30,01,35,17.80
2003,07,30,01,36,17.80
2003,07,30,01,37,17.80
2003,07,30,01,38,17.80
2003,07,30,01,39,17.80
2003,07,30,01,40,17.80
2003,07,30,01,41,17.80
2003,07,30,01,42,17.70
2003,07,30,01,43,17.80
2003,07,30,01,44,17.90
2003,07,30,01,45,17.90
2003,07,30,01,46,18.10
2003,07,30,01,47,18.20
2003,07,30,01,48,18.20
2003,07,30,01,49,18.10
2003,07,30,01,50,18.10
2003,07,30,01,51,18.20
2003,07,30,01,52,18.20
2003,07,30,01,53,18.30
2003,07,30,01,54,18.50
2003,07,30,01,55,18.60
2003,07,30,01,56,18.70
2003,07,30,01,57,18.70
2003,07,30,01,58,18.70
2003,07,30,01,59,18.70
2003,07,30,02,00,18.80
2003,07,30,02,01,18.90
2003,07,30,02,02,18.90
2003,07,30,02,03,18.90
2003,07,30,02,04,18.90
2003,07,30,02,05,18.90
2003,07,30,02,06,18.80
2003,07,30,02,07,18.60
2003,07,30,02,08,18.60
2003,07,30,02,09,18.60
2003,07,30,02,10,18.50
2003,07,30,02,11,18.50
2003,07,30,02,12,18.50
2003,07,30,02,13,18.40
2003,07,30,02,14,18.30
2003,07,30,02,15,18.20
2003,07,30,02,16,18.10
2003,07,30,02,17,18.10
2003,07,30,02,18,18.10
2003,07,30,02,19,18.10
2003,07,30,02,20,18.20
2003,07,30,02,21,18.20
2003,07,30,02,22,18.10
2003,07,30,02,23,18.00
2003,07,30,02,24,17.90
2003,07,30,02,25,17.80
2003,07,30,02,26,17.70
2003,07,30,02,27,17.70
2003,07,30,02,28,17.60
2003,07,30,02,29,17.50
2003,07,30,02,30,17.50
2003,07,30,02,31,17.40
2003,07,30,02,32,17.30
2003,07,30,02,33,17.30
2003,07,30,02,34,17.30
2003,07,30,02,35,17.30
2003,07,30,02,36,17.20
2003,07,30,02,37,17.10
2003,07,30,02,38,17.00
2003,07,30,02,39,17.00
2003,07,30,02,40,16.90
2003,07,30,02,41,16.90
2003,07,30,02,42,17.00
2003,07,30,02,43,17.00
2003,07,30,02,44,17.00
2003,07,30,02,45,17.00
2003,07,30,02,46,16.90
2003,07,30,02,47,16.90
2003,07,30,02,48,16.90
2003,07,30,02,49,17.00
2003,07,30,02,50,17.00
2003,07,30,02,51,17.00
2003,07,30,02,52,17.00
2003,07,30,02,53,17.00
2003,07,30,02,54,17.10
2003,07,30,02,55,17.10
2003,07,30,02,56,17.10
2003,07,30,02,57,17.10
2003,07,30,02,58,17.20
2003,07,30,02,59,17.30
2003,07,30,03,00,17.40
2003,07,30,03,01,17.40
2003,07,30,03,02,17.50
2003,07,30,03,03,17.50
2003,07,30,03,04,17.60
2003,07,30,03,05,17.70
2003,07,30,03,06,17.80
2003,07,30,03,07,17.80
2003,07,30,03,08,17.90
2003,07,30,03,09,17.90
2003,07,30,03,10,17.90
2003,07,30,03,11,17.90
2003,07,30,03,12,18.00
2003,07,30,03,13,18.10
2003,07,30,03,14,18.10
2003,07,30,03,15,18.10
2003,07,30,03,16,18.20
2003,07,30,03,17,18.20
2003,07,30,03,18,18.20
2003,07,30,03,19,18.20
2003,07,30,03,20,18.20
2003,07,30,03,21,18.20
2003,07,30,03,22,18.20
2003,07,30,03,23,18.20
2003,07,30,03,24,18.20
2003,07,30,03,25,18.10
2003,07,30,03,26,18.10
2003,07,30,03,27,18.00
2003,07,30,03,28,17.90
2003,07,30,03,29,17.90
2003,07,30,03,30,17.90
2003,07,30,03,31,17.90
2003,07,30,03,32,17.90
2003,07,30,03,33,17.90
2003,07,30,03,34,17.90
2003,07,30,03,35,17.90
2003,07,30,03,36,17.90
2003,07,30,03,37,17.90
2003,07,30,03,38,17.90
2003,07,30,03,39,17.90
2003,07,30,03,40,17.90
2003,07,30,03,41,17.80
2003,07,30,03,42,17.80
2003,07,30,03,43,17.80
2003,07,30,03,44,17.80
2003,07,30,03,45,17.80
2003,07,30,03,46,17.70
2003,07,30,03,47,17.70
2003,07,30,03,48,17.60
2003,07,30,03,49,17.50
2003,07,30,03,50,17.50
2003,07,30,03,51,17.50
2003,07,30,03,52,17.50
2003,07,30,03,53,17.50
2003,07,30,03,54,17.50
2003,07,30,03,55,17.50
2003,07,30,03,56,17.50
2003,07,30,03,57,17.40
2003,07,30,03,58,17.50
2003,07,30,03,59,17.50
2003,07,30,04,00,17.50
2003,07,30,04,01,17.50
2003,07,30,04,02,17.50
2003,07,30,04,03,17.50
2003,07,30,04,04,17.50
2003,07,30,04,05,17.40
2003,07,30,04,06,17.40
2003,07,30,04,07,17.30
2003,07,30,04,08,17.30
2003,07,30,04,09,17.40
2003,07,30,04,10,17.40
2003,07,30,04,11,17.30
2003,07,30,04,12,17.30
2003,07,30,04,13,17.30
2003,07,30,04,14,17.30
2003,07,30,04,15,17.20
2003,07,30,04,16,17.20
2003,07,30,04,17,17.10
2003,07,30,04,18,17.10
2003,07,30,04,19,17.00
2003,07,30,04,20,17.00
2003,07,30,04,21,16.90
2003,07,30,04,22,16.90
2003,07,30,04,23,16.80
2003,07,30,04,24,16.80
2003,07,30,04,25,16.80
2003,07,30,04,26,16.70
2003,07,30,04,27,16.70
2003,07,30,04,28,16.70
2003,07,30,04,29,16.70
2003,07,30,04,30,16.60
2003,07,30,04,31,16.60
2003,07,30,04,32,16.60
2003,07,30,04,33,16.60
2003,07,30,04,34,16.60
2003,07,30,04,35,16.60
2003,07,30,04,36,16.60
2003,07,30,04,37,16.60
2003,07,30,04,38,16.70
2003,07,30,04,39,16.70
2003,07,30,04,40,16.70
2003,07,30,04,41,16.70
2003,07,30,04,42,16.70
2003,07,30,04,43,16.70
2003,07,30,04,44,16.70
2003,07,30,04,45,16.70
2003,07,30,04,46,16.70
2003,07,30,04,47,16.70
2003,07,30,04,48,16.70
2003,07,30,04,49,16.70
2003,07,30,04,50,16.70
2003,07,30,04,51,16.70
2003,07,30,04,52,16.70
2003,07,30,04,53,16.70
2003,07,30,04,54,16.80
2003,07,30,04,55,16.80
2003,07,30,04,56,16.90
2003,07,30,04,57,16.90
2003,07,30,04,58,16.90
2003,07,30,04,59,16.90
2003,07,30,05,00,16.90
2003,07,30,05,01,16.90
2003,07,30,05,02,17.00
2003,07,30,05,03,17.00
2003,07,30,05,04,17.00
2003,07,30,05,05,17.10
2003,07,30,05,06,17.10
2003,07,30,05,07,17.20
2003,07,30,05,08,17.20
2003,07,30,05,09,17.20
2003,07,30,05,10,17.20
2003,07,30,05,11,17.30
2003,07,30,05,12,17.30
2003,07,30,05,13,17.30
2003,07,30,05,14,17.30
2003,07,30,05,15,17.30
2003,07,30,05,16,17.30
2003,07,30,05,17,17.30
2003,07,30,05,18,17.30
2003,07,30,05,19,17.30
2003,07,30,05,20,17.20
2003,07,30,05,21,17.20
2003,07,30,05,22,17.20
2003,07,30,05,23,17.20
2003,07,30,05,24,17.20
2003,07,30,05,25,17.20
2003,07,30,05,26,17.20
2003,07,30,05,27,17.20
2003,07,30,05,28,17.20
2003,07,30,05,29,17.20
2003,07,30,05,30,17.20
2003,07,30,05,31,17.20
2003,07,30,05,32,17.30
2003,07,30,05,33,17.30
2003,07,30,05,34,17.30
2003,07,30,05,35,17.30
2003,07,30,05,36,17.30
2003,07,30,05,37,17.20
2003,07,30,05,38,17.20
2003,07,30,05,39,17.20
2003,07,30,05,40,17.20
2003,07,30,05,41,17.20
2003,07,30,05,42,17.20
2003,07,30,05,43,17.20
2003,07,30,05,44,17.20
2003,07,30,05,45,17.20
2003,07,30,05,46,17.20
2003,07,30,05,47,17.20
2003,07,30,05,48,17.20
2003,07,30,05,49,17.20
2003,07,30,05,50,17.10
2003,07,30,05,51,17.10
2003,07,30,05,52,17.00
2003,07,30,05,53,17.00
2003,07,30,05,54,17.00
2003,07,30,05,55,17.10
2003,07,30,05,56,17.10
2003,07,30,05,57,17.10
2003,07,30,05,58,17.10
2003,07,30,05,59,17.10
2003,07,30,06,00,17.20
2003,07,30,06,01,17.30
2003,07,30,06,02,17.30
2003,07,30,06,03,17.30
2003,07,30,06,04,17.30
2003,07,30,06,05,17.30
2003,07,30,06,06,17.20
2003,07,30,06,07,17.30
2003,07,30,06,08,17.40
2003,07,30,06,09,17.50
2003,07,30,06,10,17.50
2003,07,30,06,11,17.50
2003,07,30,06,12,17.50
2003,07,30,06,13,17.50
2003,07,30,06,14,17.60
2003,07,30,06,15,17.60
2003,07,30,06,16,17.70
2003,07,30,06,17,17.80
2003,07,30,06,18,17.80
2003,07,30,06,19,17.90
2003,07,30,06,20,17.90
2003,07,30,06,21,17.90
2003,07,30,06,22,18.00
2003,07,30,06,23,18.10
2003,07,30,06,24,18.10
2003,07,30,06,25,18.20
2003,07,30,06,26,18.20
2003,07,30,06,27,18.20
2003,07,30,06,28,18.20
2003,07,30,06,29,18.20
2003,07,30,06,30,18.20
2003,07,30,06,31,18.30
2003,07,30,06,32,18.40
2003,07,30,06,33,18.40
2003,07,30,06,34,18.40
2003,07,30,06,35,18.50
2003,07,30,06,36,18.50
2003,07,30,06,37,18.60
2003,07,30,06,38,18.60
2003,07,30,06,39,18.70
2003,07,30,06,40,18.70
2003,07,30,06,41,18.70
2003,07,30,06,42,18.70
2003,07,30,06,43,18.60
2003,07,30,06,44,18.60
2003,07,30,06,45,18.70
2003,07,30,06,46,18.80
2003,07,30,06,47,18.90
2003,07,30,06,48,19.00
2003,07,30,06,49,19.10
2003,07,30,06,50,19.20
2003,07,30,06,51,19.20
2003,07,30,06,52,19.30
2003,07,30,06,53,19.50
2003,07,30,06,54,19.60
2003,07,30,06,55,19.70
2003,07,30,06,56,19.80
2003,07,30,06,57,19.90
2003,07,30,06,58,20.00
2003,07,30,06,59,20.10
2003,07,30,07,00,20.20
2003,07,30,07,01,20.20
2003,07,30,07,02,20.30
2003,07,30,07,03,20.30
2003,07,30,07,04,20.30
2003,07,30,07,05,20.40
2003,07,30,07,06,20.50
2003,07,30,07,07,20.50
2003,07,30,07,08,20.60
2003,07,30,07,09,20.60
2003,07,30,07,10,20.60
2003,07,30,07,11,20.60
2003,07,30,07,12,20.70
2003,07,30,07,13,20.80
2003,07,30,07,14,20.80
2003,07,30,07,15,20.90
2003,07,30,07,16,21.00
2003,07,30,07,17,21.00
2003,07,30,07,18,21.00
2003,07,30,07,19,21.00
2003,07,30,07,20,21.10
2003,07,30,07,21,21.10
2003,07,30,07,22,21.10
2003,07,30,07,23,21.10
2003,07,30,07,24,21.10
2003,07,30,07,25,21.10
2003,07,30,07,26,21.20
2003,07,30,07,27,21.40
2003,07,30,07,28,21.60
2003,07,30,07,29,21.80
2003,07,30,07,30,21.90
2003,07,30,07,31,22.00
2003,07,30,07,32,22.10
2003,07,30,07,33,22.10
2003,07,30,07,34,22.20
2003,07,30,07,35,22.30
2003,07,30,07,36,22.40
2003,07,30,07,37,22.50
2003,07,30,07,38,22.60
2003,07,30,07,39,22.60
2003,07,30,07,40,22.60
2003,07,30,07,41,22.60
2003,07,30,07,42,22.60
2003,07,30,07,43,22.70
2003,07,30,07,44,22.80
2003,07,30,07,45,22.90
2003,07,30,07,46,22.90
2003,07,30,07,47,23.00
2003,07,30,07,48,23.10
2003,07,30,07,49,23.20
2003,07,30,07,50,23.30
2003,07,30,07,51,23.40
2003,07,30,07,52,23.50
2003,07,30,07,53,23.70
2003,07,30,07,54,23.80
2003,07,30,07,55,23.80
2003,07,30,07,56,23.90
2003,07,30,07,57,24.00
2003,07,30,07,58,24.10
2003,07,30,07,59,24.10
2003,07,30,08,00,24.10
2003,07,30,08,01,24.00
2003,07,30,08,02,23.80
2003,07,30,08,03,23.60
2003,07,30,08,04,23.40
2003,07,30,08,05,23.00
2003,07,30,08,10,22.80
2003,07,30,08,11,23.00
2003,07,30,08,12,23.00
2003,07,30,08,13,23.00
2003,07,30,08,14,23.50
2003,07,30,08,15,23.10
2003,07,30,08,16,23.10
2003,07,30,08,17,22.90
2003,07,30,08,18,22.80
2003,07,30,08,19,22.80
2003,07,30,08,20,23.20
2003,07,30,08,21,23.50
2003,07,30,08,22,23.40
2003,07,30,08,23,23.20
2003,07,30,08,24,23.20
2003,07,30,08,25,23.20
2003,07,30,08,26,23.20
2003,07,30,08,27,23.10
2003,07,30,08,28,23.30
2003,07,30,08,29,23.20
2003,07,30,08,30,23.20
2003,07,30,08,31,23.30
2003,07,30,08,32,23.40
2003,07,30,08,33,23.30
2003,07,30,08,34,23.30
2003,07,30,08,35,23.30
2003,07,30,08,36,23.30
2003,07,30,08,37,23.20
2003,07,30,08,38,23.20
2003,07,30,08,39,23.20
2003,07,30,08,40,23.30
2003,07,30,08,41,23.30
2003,07,30,08,42,23.30
2003,07,30,08,43,23.30
2003,07,30,08,44,23.30
2003,07,30,08,45,23.30
2003,07,30,08,46,23.30
2003,07,30,08,47,23.30
2003,07,30,08,48,23.30
2003,07,30,08,49,23.30
2003,07,30,08,50,23.20
2003,07,30,08,51,23.20
2003,07,30,08,52,23.20
2003,07,30,08,53,23.20
2003,07,30,08,54,23.00
2003,07,30,08,55,22.90
2003,07,30,08,56,22.90
2003,07,30,08,57,22.80
2003,07,30,08,58,22.80
2003,07,30,08,59,22.90
2003,07,30,09,00,22.90
2003,07,30,09,01,22.80
2003,07,30,09,02,22.80
2003,07,30,09,03,22.70
2003,07,30,09,04,22.60
2003,07,30,09,05,22.60
2003,07,30,09,06,22.60
2003,07,30,09,07,22.70
2003,07,30,09,08,22.90
2003,07,30,09,09,22.90
2003,07,30,09,10,22.90
2003,07,30,09,11,23.00
2003,07,30,09,12,23.10
2003,07,30,09,13,23.10
2003,07,30,09,14,22.80
2003,07,30,09,15,22.60
2003,07,30,09,16,22.60
2003,07,30,09,17,22.60
2003,07,30,09,18,22.50
2003,07,30,09,19,22.60
2003,07,30,09,20,22.60
2003,07,30,09,21,22.60
2003,07,30,09,22,22.60
2003,07,30,09,23,22.50
2003,07,30,09,24,22.50
2003,07,30,09,25,22.60
2003,07,30,09,26,22.60
2003,07,30,09,27,22.60
2003,07,30,09,28,22.60
2003,07,30,09,29,22.50
2003,07,30,09,30,22.60
2003,07,30,09,31,22.60
2003,07,30,09,32,22.60
2003,07,30,09,33,22.70
2003,07,30,09,34,22.80
2003,07,30,09,35,22.90
2003,07,30,09,36,22.90
2003,07,30,09,37,22.90
2003,07,30,09,38,22.90
2003,07,30,09,39,23.00
2003,07,30,09,40,23.10
2003,07,30,09,41,23.20
2003,07,30,09,42,23.30
2003,07,30,09,43,23.30
2003,07,30,09,44,23.40
2003,07,30,09,45,23.50
2003,07,30,09,46,23.60
2003,07,30,09,47,23.50
2003,07,30,09,48,23.50
2003,07,30,09,49,23.40
2003,07,30,09,50,23.40
2003,07,30,09,51,23.50
2003,07,30,09,52,23.50
2003,07,30,09,53,23.40
2003,07,30,09,54,23.40
2003,07,30,09,55,23.60
2003,07,30,09,56,23.70
2003,07,30,09,57,23.70
2003,07,30,09,58,23.80
2003,07,30,09,59,23.90
2003,07,30,10,00,24.10
2003,07,30,10,01,24.10
2003,07,30,10,02,24.10
2003,07,30,10,03,24.10
2003,07,30,10,04,24.00
2003,07,30,10,05,23.80
2003,07,30,10,06,23.80
2003,07,30,10,07,23.90
2003,07,30,10,08,23.80
2003,07,30,10,09,23.90
2003,07,30,10,10,24.00
2003,07,30,10,11,24.10
2003,07,30,10,12,24.20
2003,07,30,10,13,24.40
2003,07,30,10,14,24.50
2003,07,30,10,15,24.60
2003,07,30,10,16,24.70
2003,07,30,10,17,24.80
2003,07,30,10,18,24.80
2003,07,30,10,19,24.70
2003,07,30,10,20,24.50
2003,07,30,10,21,24.40
2003,07,30,10,22,24.30
2003,07,30,10,23,24.20
2003,07,30,10,24,24.10
2003,07,30,10,25,24.10
2003,07,30,10,26,24.10
2003,07,30,10,27,24.00
2003,07,30,10,28,23.90
2003,07,30,10,29,23.90
2003,07,30,10,30,23.80
2003,07,30,10,31,23.70
2003,07,30,10,32,23.70
2003,07,30,10,33,23.80
2003,07,30,10,34,23.80
2003,07,30,10,35,23.90
2003,07,30,10,36,24.10
2003,07,30,10,37,24.10
2003,07,30,10,38,24.10
2003,07,30,10,39,23.90
2003,07,30,10,40,23.90
2003,07,30,10,41,23.90
2003,07,30,10,42,24.00
2003,07,30,10,43,24.10
2003,07,30,10,44,24.10
2003,07,30,10,45,24.00
2003,07,30,10,46,23.90
2003,07,30,10,47,23.80
2003,07,30,10,48,23.70
2003,07,30,10,49,23.70
2003,07,30,10,50,23.70
2003,07,30,10,51,23.60
2003,07,30,10,52,23.70
2003,07,30,10,53,23.60
2003,07,30,10,54,23.60
2003,07,30,10,55,23.50
2003,07,30,10,56,23.40
2003,07,30,10,57,23.60
2003,07,30,10,58,23.60
2003,07,30,10,59,23.60
2003,07,30,11,00,23.60
2003,07,30,11,01,23.70
2003,07,30,11,02,23.70
2003,07,30,11,03,23.70
2003,07,30,11,04,24.00
2003,07,30,11,05,24.10
2003,07,30,11,06,24.30
2003,07,30,11,07,24.50
2003,07,30,11,08,24.60
2003,07,30,11,09,24.50
2003,07,30,11,10,24.40
2003,07,30,11,11,24.30
2003,07,30,11,12,24.10
2003,07,30,11,13,24.00
2003,07,30,11,14,23.80
2003,07,30,11,15,23.90
2003,07,30,11,16,24.00
2003,07,30,11,17,24.10
2003,07,30,11,18,24.20
2003,07,30,11,19,24.10
2003,07,30,11,20,24.30
2003,07,30,11,21,24.50
2003,07,30,11,22,24.40
2003,07,30,11,23,24.30
2003,07,30,11,24,24.20
2003,07,30,11,25,24.10
2003,07,30,11,26,24.10
2003,07,30,11,27,24.10
2003,07,30,11,28,24.30
2003,07,30,11,29,24.40
2003,07,30,11,30,24.50
2003,07,30,11,31,24.70
2003,07,30,11,32,24.70
2003,07,30,11,33,24.60
2003,07,30,11,34,24.60
2003,07,30,11,35,24.60
2003,07,30,11,36,24.70
2003,07,30,11,37,24.80
2003,07,30,11,38,24.90
2003,07,30,11,39,25.10
2003,07,30,11,40,25.30
2003,07,30,11,41,25.20
2003,07,30,11,42,25.30
2003,07,30,11,43,25.20
2003,07,30,11,44,25.00
2003,07,30,11,45,24.80
2003,07,30,11,46,24.60
2003,07,30,11,47,24.50
2003,07,30,11,48,24.40
2003,07,30,11,49,24.60
2003,07,30,11,50,24.70
2003,07,30,11,51,24.90
2003,07,30,11,52,24.80
2003,07,30,11,53,24.70
2003,07,30,11,54,24.80
2003,07,30,11,55,24.90
2003,07,30,11,56,24.90
2003,07,30,11,57,24.80
2003,07,30,11,58,24.80
2003,07,30,11,59,24.70
2003,07,30,12,00,24.70
2003,07,30,12,01,24.70
2003,07,30,12,02,24.80
2003,07,30,12,03,24.80
2003,07,30,12,04,24.90
2003,07,30,12,05,25.00
2003,07,30,12,06,25.30
2003,07,30,12,07,25.50
2003,07,30,12,08,25.70
2003,07,30,12,09,25.80
2003,07,30,12,10,25.80
2003,07,30,12,11,25.80
2003,07,30,12,12,25.90
2003,07,30,12,13,25.90
2003,07,30,12,14,25.80
2003,07,30,12,15,25.50
2003,07,30,12,16,25.30
2003,07,30,12,17,25.30
2003,07,30,12,18,25.30
2003,07,30,12,19,25.10
2003,07,30,12,20,25.00
2003,07,30,12,21,25.00
2003,07,30,12,22,25.10
2003,07,30,12,23,25.30
2003,07,30,12,24,25.40
2003,07,30,12,25,25.50
2003,07,30,12,26,25.60
2003,07,30,12,27,25.60
2003,07,30,12,28,25.60
2003,07,30,12,29,25.60
2003,07,30,12,30,25.50
2003,07,30,12,31,25.50
2003,07,30,12,32,25.70
2003,07,30,12,33,25.70
2003,07,30,12,34,25.70
2003,07,30,12,35,25.70
2003,07,30,12,36,25.80
2003,07,30,12,37,25.50
2003,07,30,12,38,25.30
2003,07,30,12,39,25.10
2003,07,30,12,40,25.00
2003,07,30,12,41,24.90
2003,07,30,12,42,24.80
2003,07,30,12,43,24.80
2003,07,30,12,44,25.10
2003,07,30,12,45,25.20
2003,07,30,12,46,25.20
2003,07,30,12,47,25.20
2003,07,30,12,48,25.10
2003,07,30,12,49,25.30
2003,07,30,12,50,25.60
2003,07,30,12,51,25.80
2003,07,30,12,52,25.90
2003,07,30,12,53,25.80
2003,07,30,12,54,25.70
2003,07,30,12,55,25.60
2003,07,30,12,56,25.60
2003,07,30,12,57,25.50
2003,07,30,12,58,25.60
2003,07,30,12,59,25.50
2003,07,30,13,00,25.50
2003,07,30,13,01,25.50
2003,07,30,13,02,25.60
2003,07,30,13,03,25.50
2003,07,30,13,04,25.40
2003,07,30,13,05,25.40
2003,07,30,13,06,25.40
2003,07,30,13,07,25.40
2003,07,30,13,08,25.40
2003,07,30,13,09,25.40
2003,07,30,13,10,25.40
2003,07,30,13,11,25.60
2003,07,30,13,12,25.70
2003,07,30,13,13,25.70
2003,07,30,13,14,25.80
2003,07,30,13,15,25.90
2003,07,30,13,16,26.00
2003,07,30,13,17,25.90
2003,07,30,13,18,25.80
2003,07,30,13,19,25.60
2003,07,30,13,20,25.50
2003,07,30,13,21,25.50
2003,07,30,13,22,25.70
2003,07,30,13,23,25.60
2003,07,30,13,24,25.80
2003,07,30,13,25,26.10
2003,07,30,13,26,26.30
2003,07,30,13,27,26.20
2003,07,30,13,28,26.40
2003,07,30,13,29,26.20
2003,07,30,13,30,26.00
2003,07,30,13,31,25.90
2003,07,30,13,32,26.10
2003,07,30,13,33,26.10
2003,07,30,13,34,25.90
2003,07,30,13,35,25.80
2003,07,30,13,36,25.90
2003,07,30,13,37,25.90
2003,07,30,13,38,25.80
2003,07,30,13,39,25.90
2003,07,30,13,40,25.90
2003,07,30,13,41,25.90
2003,07,30,13,42,25.90
2003,07,30,13,43,25.90
2003,07,30,13,44,26.00
2003,07,30,13,45,26.20
2003,07,30,13,46,26.20
2003,07,30,13,47,26.10
2003,07,30,13,48,26.20
2003,07,30,13,49,26.50
2003,07,30,13,50,26.50
2003,07,30,13,51,26.60
2003,07,30,13,52,26.60
2003,07,30,13,53,26.50
2003,07,30,13,54,26.60
2003,07,30,13,55,26.70
2003,07,30,13,56,26.60
2003,07,30,13,57,26.50
2003,07,30,13,58,26.40
2003,07,30,13,59,26.50
2003,07,30,14,00,26.30
2003,07,30,14,01,26.10
2003,07,30,14,02,26.10
2003,07,30,14,03,26.20
2003,07,30,14,04,26.20
2003,07,30,14,05,26.10
2003,07,30,14,06,26.10
2003,07,30,14,07,26.00
2003,07,30,14,08,25.90
2003,07,30,14,09,26.00
2003,07,30,14,10,25.90
2003,07,30,14,11,25.90
2003,07,30,14,12,25.90
2003,07,30,14,13,25.90
2003,07,30,14,14,25.80
2003,07,30,14,15,25.70
2003,07,30,14,16,25.90
2003,07,30,14,17,25.90
2003,07,30,14,18,25.90
2003,07,30,14,19,25.90
2003,07,30,14,20,25.90
2003,07,30,14,21,25.90
2003,07,30,14,22,25.90
2003,07,30,14,23,25.80
2003,07,30,14,24,25.70
2003,07,30,14,25,25.80
2003,07,30,14,26,25.80
2003,07,30,14,27,25.70
2003,07,30,14,28,25.70
2003,07,30,14,29,25.80
2003,07,30,14,30,25.80
2003,07,30,14,31,25.80
2003,07,30,14,32,25.70
2003,07,30,14,33,25.80
2003,07,30,14,34,26.00
2003,07,30,14,35,26.10
2003,07,30,14,36,26.10
2003,07,30,14,37,26.30
2003,07,30,14,38,26.40
2003,07,30,14,39,26.50
2003,07,30,14,40,26.60
2003,07,30,14,41,26.60
2003,07,30,14,42,26.60
2003,07,30,14,43,26.60
2003,07,30,14,44,26.70
2003,07,30,14,45,26.70
2003,07,30,14,46,26.60
2003,07,30,14,47,26.70
2003,07,30,14,48,26.80
2003,07,30,14,49,26.70
2003,07,30,14,50,26.70
2003,07,30,14,51,26.70
2003,07,30,14,52,26.70
2003,07,30,14,53,26.80
2003,07,30,14,54,26.90
2003,07,30,14,55,27.00
2003,07,30,14,56,27.00
2003,07,30,14,57,27.10
2003,07,30,14,58,27.20
2003,07,30,14,59,27.00
2003,07,30,15,00,26.90
2003,07,30,15,01,26.90
2003,07,30,15,02,26.90
2003,07,30,15,03,26.90
2003,07,30,15,04,27.10
2003,07,30,15,05,27.40
2003,07,30,15,06,27.60
2003,07,30,15,07,27.60
2003,07,30,15,08,27.60
2003,07,30,15,09,27.60
2003,07,30,15,10,27.60
2003,07,30,15,11,27.90
2003,07,30,15,12,28.00
2003,07,30,15,13,28.10
2003,07,30,15,14,27.90
2003,07,30,15,15,27.80
2003,07,30,15,16,27.60
2003,07,30,15,17,27.50
2003,07,30,15,18,27.50
2003,07,30,15,19,27.50
2003,07,30,15,20,27.60
2003,07,30,15,21,27.60
2003,07,30,15,22,27.60
2003,07,30,15,23,27.70
2003,07,30,15,24,27.80
2003,07,30,15,25,27.80
2003,07,30,15,26,27.80
2003,07,30,15,27,28.10
2003,07,30,15,28,28.20
2003,07,30,15,29,28.10
2003,07,30,15,30,27.90
2003,07,30,15,31,27.80
2003,07,30,15,32,27.60
2003,07,30,15,33,27.40
2003,07,30,15,34,27.30
2003,07,30,15,35,27.30
2003,07,30,15,36,27.20
2003,07,30,15,37,27.20
2003,07,30,15,38,27.20
2003,07,30,15,39,27.40
2003,07,30,15,40,27.80
2003,07,30,15,41,28.00
2003,07,30,15,42,28.30
2003,07,30,15,43,28.50
2003,07,30,15,44,28.60
2003,07,30,15,45,28.90
2003,07,30,15,46,29.10
2003,07,30,15,47,29.40
2003,07,30,15,48,29.90
2003,07,30,15,49,30.10
2003,07,30,15,50,30.30
2003,07,30,15,51,30.50
2003,07,30,15,52,30.50
2003,07,30,15,53,30.00
2003,07,30,15,54,29.50
2003,07,30,15,55,29.40
2003,07,30,15,56,29.20
2003,07,30,15,57,29.00
2003,07,30,15,58,28.50
2003,07,30,15,59,28.30
2003,07,30,16,00,28.20
2003,07,30,16,01,28.30
2003,07,30,16,02,28.30
2003,07,30,16,03,28.40
2003,07,30,16,04,28.50
2003,07,30,16,05,28.80
2003,07,30,16,06,29.00
2003,07,30,16,07,28.90
2003,07,30,16,08,28.70
2003,07,30,16,09,28.60
2003,07,30,16,10,28.50
2003,07,30,16,11,28.50
2003,07,30,16,12,28.50
2003,07,30,16,13,28.50
2003,07,30,16,14,28.60
2003,07,30,16,15,28.50
2003,07,30,16,16,28.40
2003,07,30,16,17,28.30
2003,07,30,16,18,28.20
2003,07,30,16,19,28.20
2003,07,30,16,20,28.20
2003,07,30,16,21,28.20
2003,07,30,16,22,28.10
2003,07,30,16,23,27.90
2003,07,30,16,24,27.80
2003,07,30,16,25,27.60
2003,07,30,16,26,27.80
2003,07,30,16,27,28.00
2003,07,30,16,28,28.20
2003,07,30,16,29,28.30
2003,07,30,16,30,28.40
2003,07,30,16,31,28.40
2003,07,30,16,32,28.40
2003,07,30,16,33,28.40
2003,07,30,16,34,28.50
2003,07,30,16,35,28.60
2003,07,30,16,36,28.60
2003,07,30,16,37,28.50
2003,07,30,16,38,28.30
2003,07,30,16,39,28.20
2003,07,30,16,40,28.30
2003,07,30,16,41,28.40
2003,07,30,16,42,28.50
2003,07,30,16,43,28.50
2003,07,30,16,44,28.40
2003,07,30,16,45,28.00
2003,07,30,16,46,27.80
2003,07,30,16,47,27.60
2003,07,30,16,48,27.40
2003,07,30,16,49,27.20
2003,07,30,16,50,27.10
2003,07,30,16,51,27.00
2003,07,30,16,52,27.10
2003,07,30,16,53,27.10
2003,07,30,16,54,27.20
2003,07,30,16,55,27.40
2003,07,30,16,56,27.60
2003,07,30,16,57,27.80
2003,07,30,16,58,28.00
2003,07,30,16,59,28.10
2003,07,30,17,00,27.80
2003,07,30,17,01,27.70
2003,07,30,17,02,27.70
2003,07,30,17,03,27.40
2003,07,30,17,04,27.20
2003,07,30,17,05,27.10
2003,07,30,17,06,27.10
2003,07,30,17,07,27.20
2003,07,30,17,08,27.20
2003,07,30,17,09,27.10
2003,07,30,17,10,27.00
2003,07,30,17,11,27.10
2003,07,30,17,12,26.80
2003,07,30,17,13,26.80
2003,07,30,17,14,26.90
2003,07,30,17,15,26.70
2003,07,30,17,16,26.50
2003,07,30,17,17,26.30
2003,07,30,17,18,26.20
2003,07,30,17,19,26.10
2003,07,30,17,20,26.20
2003,07,30,17,21,26.30
2003,07,30,17,22,26.50
2003,07,30,17,23,26.90